Location: Newark
(34.6283°N, 36.0776°E)
Time: 13:21:50
(UTC+00:00)

Tiros 1 despin weight - Pass Details

Date: 29 September 2019
Orbit: 594 x 643 km, 48.2° (Epoch: 14 October)

Event Time Altitude Azimuth Distance (km) Brightness Sun altitude
Rises 04:42:15 0° 201° (SSW) 2,924 ? 14.2°
Reaches altitude 10° 04:44:52 10° 189° (S) 2,015 ? 14.7°
Maximum altitude 04:48:43 26° 133° (SE) 1,251 ? 15.5°
Drops below altitude 10° 04:52:32 10° 77° (ENE) 2,004 ? 16.2°
Sets 04:55:08 0° 64° (ENE) 2,906 ? 16.8°
